Weather History for Rolla, MO

Change the Weather History Date:

Sunday, October 28, 2012

  Actual Average Record
Temperature  
Mean Temperature 39 °F 53 °F  
Max Temperature 50 °F 64 °F 86 °F (1950)
Min Temperature 28 °F 42 °F 26 °F (1957)
Degree Days  
Heating Degree Days 26 13  
Month to date heating degree days 315 246  
Since 1 July heating degree days 397 310  
Cooling Degree Days 0 0  
Month to date cooling degree days 25 25  
Year to date cooling degree days 1691 1243  
Moisture  
Dew Point 26 °F    
Average Humidity 64    
Maximum Humidity 89    
Minimum Humidity 41    
Precipitation  
Precipitation 0.00 in 0.12 in 0.73 in (1955)
Month to date precipitation 3.10 3.16  
Year to date precipitation 29.66 36.75  
Sea Level Pressure  
Sea Level Pressure 30.26 in    
Wind  
Wind Speed 5 mph (North)    
Max Wind Speed 13 mph    
Max Gust Speed 20 mph    
Visibility 10 miles    
Events      
T = Trace of Precipitation, MM = Missing Value Source: NWS Daily Summary

Daily Weather History Graph

Daily Weather History Graph

Search for Another Location

Airport:

Trip Planner

Search our weather history database for the weather conditions in past years. The results will help you decide how hot, cold, wet, or windy it might be!

Date:

Astronomy

Oct. 28, 2012 Rise Set
Actual Time 7:29 AM CDT 6:11 PM CDT
Civil Twilight 7:02 AM CDT 6:38 PM CDT
Nautical Twilight 6:31 AM CDT 7:09 PM CDT
Astronomical Twilight 6:00 AM CDT 7:40 PM CDT
Moon 5:29 PM CDT (10/28) 6:23 AM CDT (10/28)
Length of Visible Light 11h 36m
Length of Day
10h 42m
Waxing Gibbous, 99% of the Moon is Illuminated
Oct 28
Waxing Gibbous
Oct 29
Full
Nov 6
Last Quarter
Nov 13
New
Nov 20
First Quarter

Hourly Weather History & Observations

Time (CDT) Temp. Windchill Dew Point Humidity Pressure Visibility Wind Dir Wind Speed Gust Speed Precip Events Conditions
12:53 AM 34.0 °F 28.0 °F 27.0 °F 75% 30.25 in 10.0 mi NNE 6.9 mph - N/A   Clear
1:53 AM 33.1 °F 27.7 °F 27.0 °F 78% 30.25 in 10.0 mi North 5.8 mph - N/A   Clear
2:53 AM 33.1 °F 27.7 °F 27.0 °F 78% 30.25 in 10.0 mi North 5.8 mph - N/A   Clear
3:53 AM 30.9 °F 27.5 °F 26.1 °F 82% 30.25 in 10.0 mi North 3.5 mph - N/A   Clear
4:53 AM 30.0 °F 26.5 °F 26.1 °F 85% 30.25 in 10.0 mi North 3.5 mph - N/A   Clear
5:53 AM 30.9 °F - 25.0 °F 79% 30.26 in 10.0 mi Calm Calm - N/A   Clear
6:53 AM 28.9 °F 23.9 °F 25.0 °F 85% 30.27 in 10.0 mi North 4.6 mph - N/A   Clear
7:53 AM 28.9 °F - 26.1 °F 89% 30.28 in 9.0 mi Calm Calm - N/A   Clear
8:53 AM 34.0 °F 29.8 °F 28.0 °F 79% 30.29 in 10.0 mi North 4.6 mph - N/A   Clear
9:53 AM 39.0 °F 34.8 °F 30.0 °F 70% 30.30 in 10.0 mi North 5.8 mph - N/A   Clear
10:53 AM 43.0 °F 37.7 °F 27.0 °F 53% 30.30 in 10.0 mi NNE 9.2 mph - N/A   Clear
11:53 AM 44.6 °F 38.8 °F 28.4 °F 53% 30.27 in 10.0 mi NNW 11.5 mph - N/A   Clear
12:53 PM 46.9 °F - 28.0 °F 48% 30.27 in 10.0 mi NNW 12.7 mph 17.3 mph N/A   Clear
1:53 PM 48.0 °F - 27.0 °F 44% 30.25 in 10.0 mi North 11.5 mph 16.1 mph N/A   Clear
2:53 PM 48.0 °F - 26.1 °F 42% 30.24 in 10.0 mi NNW 9.2 mph 19.6 mph N/A   Clear
3:53 PM 48.9 °F - 26.1 °F 41% 30.23 in 10.0 mi North 8.1 mph 17.3 mph N/A   Clear
4:53 PM 48.0 °F - 26.1 °F 42% 30.23 in 10.0 mi NNW 10.4 mph - N/A   Clear
5:53 PM 45.0 °F 41.2 °F 26.1 °F 48% 30.24 in 10.0 mi NNW 6.9 mph - N/A   Clear
6:53 PM 39.0 °F 36.8 °F 25.0 °F 57% 30.25 in 10.0 mi North 3.5 mph - N/A   Clear
7:53 PM 37.0 °F - 24.1 °F 59% 30.27 in 10.0 mi Calm Calm - N/A   Clear
8:53 PM 37.0 °F - 23.0 °F 57% 30.27 in 10.0 mi Calm Calm - N/A   Clear
9:53 PM 33.1 °F - 23.0 °F 66% 30.28 in 10.0 mi Calm Calm - N/A   Clear
10:53 PM 34.0 °F 31.0 °F 24.1 °F 67% 30.28 in 10.0 mi North 3.5 mph - N/A   Clear
11:53 PM 34.0 °F - 24.1 °F 67% 30.28 in 10.0 mi Calm Calm - N/A   Clear